Location: Poughquag
(41.6090°N, 73.6820°W)
Time: 03:08:03
(UTC-04:00)

S-56A Canister/Altair - Pass Details

Date: 07 June 2020
Orbit: 633 x 2499 km, 38.9° (Epoch: 06 July)

Event Time Altitude Azimuth Distance (km) Brightness Sun altitude
Rises 03:26:14 0° 236° (SW) 2,927 - -16.5°
Reaches altitude 10° 03:28:27 10° 229° (SW) 2,074 - -16.3°
Exits shadow 03:30:44 27° 210° (SSW) 1,329 8.1 -16.0°
Maximum altitude 03:32:51 43° 157° (SSE) 1,060 8.0 -15.8°
Drops below altitude 10° 03:38:30 10° 88° (E) 2,676 10.9 -15.1°
Sets 03:41:43 0° 82° (E) 3,899 11.9 -14.8°
